| time (UTC) | temp F | wind direction | speed MPH | gust MPH | rain 1hr in | rain 24hr in | rain mn in | humidity % | barometer mb |
| 20260506032807 | 49 | 356 | 0.0 | 0.0 | 0.00 | 0.00 | 0.01 | 92 | 1007.6 |
| 20260506032128 | 0 | 358 | 0.0 | 0.0 | 0.00 | 0.00 | 0.01 | ||
| 20260506031227 | 0 | 358 | 0.0 | 0.0 | 0.00 | 0.00 | 0.00 | ||
| 20260506030438 | 50 | 358 | 0.0 | 0.0 | 0.00 | 0.00 | 0.56 | 93 | 1008.1 |
| 20260506025759 | 0 | 357 | 0.0 | 0.0 | 0.00 | 0.00 | 0.55 | ||
| 20260506024900 | 0 | 358 | 0.0 | 0.0 | 0.00 | 0.00 | 0.54 | ||
| 20260506024108 | 50 | 359 | 0.0 | 0.0 | 0.00 | 0.00 | 0.53 | 93 | 1008.5 |
| 20260506023429 | 0 | 358 | 0.0 | 0.0 | 0.00 | 0.00 | 0.53 | ||
| 20260506022527 | 50 | 358 | 0.0 | 0.0 | 0.00 | 0.00 | 0.51 | 93 | 1008.6 |
| 20260506021848 | 0 | 358 | 0.0 | 0.0 | 0.00 | 0.00 | 0.51 | ||
| 20260506020946 | 0 | 358 | 0.0 | 0.0 | 0.00 | 0.00 | 0.50 | ||
| 20260506020153 | 0 | 359 | 0.0 | 0.0 | 0.00 | 0.00 | 0.50 | ||
| 20260506015401 | 50 | 359 | 0.0 | 0.0 | 0.00 | 0.00 | 0.50 | 93 | 1008.4 |
| 20260506014722 | 0 | 358 | 0.0 | 0.0 | 0.00 | 0.00 | 0.49 | ||
| 20260506013820 | 50 | 357 | 0.0 | 0.0 | 0.00 | 0.00 | 0.49 | 93 | 1008.3 |
| 20260506013142 | 50 | 357 | 0.0 | 5.0 | 0.00 | 0.00 | 0.49 | 92 | 1008.3 |
| 20260506012500 | 50 | 358 | 0.0 | 5.0 | 0.00 | 0.00 | 0.49 | 91 | 1008.5 |
| 20260506011823 | 0 | 360 | 0.0 | 0.0 | 0.00 | 0.00 | 0.48 | ||
| 20260506011026 | 50 | 357 | 0.0 | 0.0 | 0.00 | 0.00 | 0.47 | 92 | 1008.7 |
| 20260506010347 | 0 | 357 | 0.0 | 0.0 | 0.00 | 0.00 | 0.47 | ||
| 20260506005556 | 50 | 357 | 0.0 | 0.0 | 0.00 | 0.00 | 0.46 | 93 | 1008.5 |
| 20260506004918 | 50 | 358 | 0.0 | 0.0 | 0.00 | 0.00 | 0.46 | 93 | 1008.4 |
| 20260506004243 | 0 | 359 | 0.0 | 0.0 | 0.00 | 0.00 | 0.45 | ||
| 20260506003445 | 49 | 358 | 0.0 | 0.0 | 0.00 | 0.00 | 0.44 | 93 | 1008.4 |
| 20260506002809 | 0 | 356 | 0.0 | 0.0 | 0.00 | 0.00 | 0.43 | ||
| 20260506002014 | 0 | 358 | 0.0 | 0.0 | 0.00 | 0.00 | 0.42 | ||
| 20260506001223 | 50 | 358 | 0.0 | 0.0 | 0.00 | 0.00 | 0.41 | 94 | 1008.4 |
| 20260506000543 | 49 | 359 | 0.0 | 0.0 | 0.00 | 0.00 | 0.40 | 94 | 1008.1 |
| 20260505235904 | 50 | 359 | 0.0 | 0.0 | 0.00 | 0.00 | 0.40 | 95 | 1008.1 |
| 20260505235225 | 50 | 359 | 0.0 | 0.0 | 0.00 | 0.00 | 0.39 | 95 | 1008.0 |
| 20260505234543 | 50 | 358 | 0.0 | 0.0 | 0.00 | 0.00 | 0.39 | 95 | 1008.0 |
| 20260505233903 | 50 | 358 | 0.0 | 0.0 | 0.00 | 0.00 | 0.38 | 95 | 1008.0 |
| 20260505233222 | 49 | 358 | 0.0 | 0.0 | 0.00 | 0.00 | 0.37 | 96 | 1007.9 |
| 20260505232545 | 49 | 360 | 0.0 | 0.0 | 0.00 | 0.00 | 0.36 | 95 | 1007.9 |
| 20260505231902 | 49 | 358 | 0.0 | 0.0 | 0.00 | 0.00 | 0.35 | 96 | 1007.9 |
| 20260505231223 | 0 | 358 | 0.0 | 0.0 | 0.00 | 0.00 | 0.35 | ||
| 20260505230436 | 48 | 358 | 0.0 | 0.0 | 0.00 | 0.00 | 0.34 | 95 | 1007.6 |
| 20260505225755 | 49 | 358 | 0.0 | 7.0 | 0.00 | 0.00 | 0.33 | 95 | 1007.8 |
| 20260505225114 | 48 | 358 | 2.0 | 8.0 | 0.00 | 0.00 | 0.32 | 95 | 1007.9 |
| 20260505224436 | 0 | 358 | 4.0 | 5.0 | 0.00 | 0.00 | 0.31 | ||
| 20260505223644 | 0 | 357 | 4.0 | 10.0 | 0.00 | 0.00 | 0.29 | ||
| 20260505222856 | 0 | 357 | 4.0 | 4.0 | 0.00 | 0.00 | 0.28 | ||
| 20260505221734 | 0 | 356 | 3.0 | 10.0 | 0.00 | 0.00 | 0.26 | ||
| 20260505220723 | 51 | 357 | 6.0 | 14.0 | 0.00 | 0.00 | 0.24 | 93 | 1007.6 |
| 20260505220045 | 51 | 357 | 8.0 | 14.0 | 0.00 | 0.00 | 0.22 | 93 | 1007.6 |
| 20260505215405 | 51 | 356 | 7.0 | 11.0 | 0.00 | 0.00 | 0.20 | 91 | 1007.5 |
| 20260505214725 | 0 | 356 | 7.0 | 10.0 | 0.00 | 0.00 | 0.19 | ||
| 20260505213709 | 52 | 356 | 10.0 | 14.0 | 0.00 | 0.00 | 0.16 | 89 | 1007.4 |
| 20260505213030 | 52 | 355 | 9.0 | 6.0 | 0.00 | 0.00 | 0.15 | 88 | 1007.1 |
| 20260505211905 | 0 | 353 | 9.0 | 7.0 | 0.00 | 0.00 | 0.13 | ||
| 20260505211003 | 52 | 357 | 7.0 | 12.0 | 0.00 | 0.00 | 0.11 | 88 | 1006.9 |
| 20260505210332 | 53 | 355 | 7.0 | 13.0 | 0.00 | 0.00 | 0.09 | 86 | 1006.9 |
| 20260505205644 | 54 | 355 | 8.0 | 18.0 | 0.00 | 0.00 | 0.07 | 83 | 1006.7 |
| 20260505205003 | 54 | 355 | 9.0 | 18.0 | 0.00 | 0.00 | 0.06 | 81 | 1006.4 |
| 20260505204324 | 0 | 356 | 8.0 | 7.0 | 0.00 | 0.00 | 0.05 | ||
| 20260505203535 | 54 | 355 | 6.0 | 13.0 | 0.00 | 0.00 | 0.05 | 80 | 1006.0 |
| 20260505202855 | 54 | 354 | 8.0 | 14.0 | 0.00 | 0.00 | 0.05 | 79 | 1006.0 |
| 20260505202216 | 0 | 352 | 9.0 | 9.0 | 0.00 | 0.00 | 0.05 | ||
| 20260505201319 | 0 | 353 | 10.0 | 10.0 | 0.00 | 0.00 | 0.05 | ||
| 20260505200416 | 54 | 356 | 11.0 | 17.0 | 0.00 | 0.00 | 0.05 | 79 | 1006.1 |
| 20260505195736 | 55 | 352 | 10.0 | 16.0 | 0.00 | 0.00 | 0.05 | 75 | 1006.2 |
| 20260505195057 | 56 | 354 | 9.0 | 15.0 | 0.00 | 0.00 | 0.05 | 73 | 1006.0 |
| 20260505194417 | 0 | 355 | 9.0 | 6.0 | 0.00 | 0.00 | 0.05 | ||
| 20260505193627 | 57 | 352 | 12.0 | 21.0 | 0.00 | 0.00 | 0.05 | 71 | 1005.7 |
| 20260505192950 | 0 | 354 | 12.0 | 9.0 | 0.00 | 0.00 | 0.05 | ||
| 20260505192158 | 0 | 350 | 11.0 | 13.0 | 0.00 | 0.00 | 0.05 | ||
| 20260505191410 | 56 | 354 | 10.0 | 12.0 | 0.00 | 0.00 | 0.05 | 74 | 1005.7 |
| 20260505190505 | 56 | 354 | 9.0 | 16.0 | 0.00 | 0.00 | 0.05 | 73 | 1005.8 |
| 20260505185825 | 56 | 356 | 9.0 | 17.0 | 0.00 | 0.00 | 0.05 | 73 | 1005.9 |
| 20260505185145 | 56 | 357 | 9.0 | 18.0 | 0.00 | 0.00 | 0.05 | 73 | 1005.9 |
| 20260505184505 | 56 | 355 | 9.0 | 18.0 | 0.00 | 0.00 | 0.05 | 73 | 1005.9 |
| 20260505183825 | 56 | 354 | 9.0 | 17.0 | 0.00 | 0.00 | 0.05 | 72 | 1005.9 |
| 20260505183144 | 56 | 355 | 9.0 | 20.0 | 0.00 | 0.00 | 0.05 | 71 | 1005.7 |
| 20260505182509 | 57 | 354 | 10.0 | 22.0 | 0.00 | 0.00 | 0.05 | 70 | 1005.6 |
| 20260505181825 | 0 | 356 | 12.0 | 9.0 | 0.00 | 0.00 | 0.05 | ||
| 20260505180917 | 56 | 356 | 9.0 | 14.0 | 0.00 | 0.00 | 0.05 | 71 | 1005.5 |
| 20260505180238 | 0 | 355 | 8.0 | 10.0 | 0.00 | 0.00 | 0.05 | ||
| 20260505175446 | 56 | 354 | 8.0 | 15.0 | 0.00 | 0.00 | 0.05 | 71 | 1005.2 |
| 20260505174805 | 56 | 352 | 9.0 | 15.0 | 0.00 | 0.00 | 0.05 | 70 | 1005.2 |
| 20260505174130 | 56 | 355 | 8.0 | 14.0 | 0.00 | 0.00 | 0.05 | 69 | 1005.1 |
| 20260505173445 | 55 | 356 | 8.0 | 14.0 | 0.00 | 0.00 | 0.05 | 70 | 1005.2 |
| 20260505172806 | 0 | 356 | 8.0 | 10.0 | 0.00 | 0.00 | 0.05 | ||
| 20260505172017 | 0 | 355 | 7.0 | 10.0 | 0.00 | 0.00 | 0.05 | ||
| 20260505171114 | 54 | 355 | 7.0 | 12.0 | 0.00 | 0.00 | 0.05 | 72 | 1005.4 |
| 20260505170435 | 0 | 356 | 7.0 | 10.0 | 0.00 | 0.00 | 0.05 | ||
| 20260505165647 | 54 | 353 | 7.0 | 16.0 | 0.00 | 0.00 | 0.05 | 71 | 1005.1 |
| 20260505165007 | 54 | 355 | 9.0 | 16.0 | 0.00 | 0.00 | 0.05 | 69 | 1005.0 |
| 20260505164328 | 55 | 355 | 10.0 | 16.0 | 0.00 | 0.00 | 0.05 | 69 | 1005.0 |
| 20260505163646 | 56 | 354 | 9.0 | 22.0 | 0.00 | 0.00 | 0.05 | 66 | 1004.8 |
| 20260505163009 | 58 | 356 | 11.0 | 22.0 | 0.00 | 0.00 | 0.05 | 64 | 1004.5 |
| 20260505162326 | 56 | 355 | 11.0 | 19.0 | 0.00 | 0.00 | 0.05 | 68 | 1004.3 |
| 20260505161646 | 55 | 354 | 13.0 | 19.0 | 0.00 | 0.00 | 0.05 | 70 | 1004.4 |
| 20260505161008 | 54 | 354 | 11.0 | 16.0 | 0.00 | 0.00 | 0.05 | 72 | 1004.8 |
| 20260505160327 | 0 | 352 | 10.0 | 8.0 | 0.00 | 0.00 | 0.05 | ||
| 20260505152741 | 54 | 357 | 6.0 | 12.0 | 0.00 | 0.00 | 0.05 | 72 | 1004.5 |
| 20260505152101 | 53 | 355 | 8.0 | 12.0 | 0.00 | 0.00 | 0.05 | 74 | 1004.0 |
| 20260505151421 | 54 | 354 | 7.0 | 14.0 | 0.00 | 0.00 | 0.05 | 71 | 1003.8 |
| 20260505150741 | 54 | 356 | 8.0 | 14.0 | 0.00 | 0.00 | 0.05 | 69 | 1003.7 |
| 20260505140457 | 60 | 355 | 10.0 | 17.0 | 0.00 | 0.00 | 0.05 | 61 | 1003.1 |
| 20260505124614 | 0 | 354 | 14.0 | 18.0 | 0.00 | 0.00 | 0.05 | ||
| 20260505123823 | 68 | 353 | 15.0 | 25.0 | 0.00 | 0.00 | 0.05 | 46 | 1001.8 |
| 20260505123143 | 69 | 357 | 13.0 | 26.0 | 0.00 | 0.00 | 0.05 | 46 | 1001.7 |
| 20260505122503 | 68 | 355 | 13.0 | 24.0 | 0.00 | 0.00 | 0.05 | 47 | 1001.7 |
| 20260505121822 | 68 | 352 | 12.0 | 23.0 | 0.00 | 0.00 | 0.05 | 47 | 1001.7 |
| 20260505121143 | 0 | 355 | 9.0 | 11.0 | 0.00 | 0.00 | 0.05 | ||
| 20260505120321 | 68 | 354 | 15.0 | 24.0 | 0.00 | 0.00 | 0.05 | 47 | 1001.7 |
| 20260505115641 | 67 | 356 | 15.0 | 24.0 | 0.00 | 0.00 | 0.05 | 48 | 1001.6 |
| 20260505115000 | 67 | 356 | 15.0 | 25.0 | 0.00 | 0.00 | 0.05 | 47 | 1001.5 |
| 20260505114321 | 0 | 353 | 15.0 | 17.0 | 0.00 | 0.00 | 0.05 | ||
| 20260505113532 | 67 | 355 | 14.0 | 23.0 | 0.00 | 0.00 | 0.05 | 47 | 1001.4 |
| 20260505112853 | 0 | 356 | 13.0 | 16.0 | 0.00 | 0.00 | 0.05 | ||
| 20260505112104 | 67 | 354 | 14.0 | 26.0 | 0.00 | 0.00 | 0.05 | 48 | 1001.4 |
| 20260505111426 | 67 | 354 | 17.0 | 31.0 | 0.00 | 0.00 | 0.05 | 47 | 1001.2 |
| 20260505110746 | 67 | 356 | 12.0 | 26.0 | 0.00 | 0.00 | 0.05 | 48 | 1001.1 |
| 20260505110106 | 0 | 355 | 14.0 | 18.0 | 0.00 | 0.00 | 0.05 | ||
| 20260505101738 | 65 | 358 | 14.0 | 24.0 | 0.00 | 0.00 | 0.05 | 54 | 1000.5 |
| 20260505101059 | 0 | 357 | 13.0 | 17.0 | 0.00 | 0.00 | 0.05 | ||
| 20260505100017 | 64 | 354 | 13.0 | 26.0 | 0.00 | 0.00 | 0.05 | 55 | 1000.3 |
| 20260505095337 | 0 | 355 | 18.0 | 16.0 | 0.00 | 0.00 | 0.05 | ||
| 20260505094549 | 64 | 356 | 16.0 | 25.0 | 0.00 | 0.00 | 0.05 | 55 | 1000.2 |
| 20260505093905 | 64 | 351 | 15.0 | 27.0 | 0.00 | 0.00 | 0.05 | 56 | 1000.2 |
| 20260505093224 | 64 | 355 | 12.0 | 24.0 | 0.00 | 0.00 | 0.05 | 56 | 1000.3 |
| 20260505092544 | 64 | 355 | 15.0 | 22.0 | 0.00 | 0.00 | 0.05 | 56 | 1000.2 |
| 20260505091905 | 64 | 353 | 14.0 | 21.0 | 0.00 | 0.00 | 0.05 | 56 | 1000.2 |
| 20260505091224 | 0 | 355 | 12.0 | 11.0 | 0.00 | 0.00 | 0.05 | ||
| 20260505090320 | 63 | 357 | 10.0 | 16.0 | 0.00 | 0.00 | 0.05 | 60 | 1000.1 |
| 20260505085641 | 0 | 356 | 8.0 | 5.0 | 0.00 | 0.00 | 0.05 | ||
| 20260505084853 | 0 | 355 | 8.0 | 9.0 | 0.00 | 0.00 | 0.05 | ||
| 20260505084102 | 63 | 355 | 10.0 | 19.0 | 0.00 | 0.00 | 0.05 | 60 | 1000.2 |
| 20260505083423 | 0 | 354 | 10.0 | 10.0 | 0.00 | 0.00 | 0.05 | ||
| 20260505082634 | 0 | 357 | 9.0 | 10.0 | 0.00 | 0.00 | 0.05 | ||
| 20260505081729 | 0 | 355 | 10.0 | 10.0 | 0.00 | 0.00 | 0.05 | ||
| 20260505080942 | 64 | 355 | 10.0 | 21.0 | 0.00 | 0.00 | 0.05 | 54 | 1000.4 |
| 20260505080301 | 64 | 354 | 12.0 | 21.0 | 0.00 | 0.00 | 0.05 | 58 | 1000.5 |
| 20260505075621 | 62 | 354 | 10.0 | 16.0 | 0.00 | 0.00 | 0.05 | 61 | 1000.6 |
| 20260505074942 | 61 | 357 | 6.0 | 10.0 | 0.00 | 0.00 | 0.05 | 66 | 1000.7 |
| 20260505074302 | 60 | 356 | 2.0 | 9.0 | 0.00 | 0.00 | 0.05 | 71 | 1000.7 |
| 20260505073621 | 57 | 357 | 0.0 | 5.0 | 0.00 | 0.00 | 0.05 | 77 | 1000.7 |
| 20260505072942 | 0 | 355 | 1.0 | 2.0 | 0.00 | 0.00 | 0.05 | ||
| 20260505072151 | 56 | 357 | 0.0 | 0.0 | 0.00 | 0.00 | 0.05 | 84 | 1000.8 |
| 20260505071510 | 56 | 355 | 0.0 | 0.0 | 0.00 | 0.00 | 0.05 | 84 | 1001.0 |
| 20260505070831 | 0 | 357 | 0.0 | 0.0 | 0.00 | 0.00 | 0.05 | ||
| 20260505070042 | 55 | 357 | 0.0 | 2.0 | 0.00 | 0.00 | 0.05 | 82 | 1001.5 |
| 20260505065402 | 56 | 357 | 0.0 | 0.0 | 0.00 | 0.00 | 0.05 | 82 | 1001.6 |
| 20260505064723 | 56 | 357 | 0.0 | 0.0 | 0.00 | 0.00 | 0.05 | 80 | 1001.5 |
| 20260505064043 | 56 | 357 | 0.0 | 5.0 | 0.00 | 0.00 | 0.05 | 77 | 1001.8 |
| 20260505063403 | 0 | 357 | 0.0 | 7.0 | 0.00 | 0.00 | 0.05 | ||
| 20260505062614 | 0 | 356 | 4.0 | 2.0 | 0.00 | 0.00 | 0.05 | ||
| 20260505061824 | 56 | 356 | 5.0 | 10.0 | 0.00 | 0.00 | 0.05 | 80 | 1001.7 |
| 20260505061143 | 56 | 358 | 6.0 | 10.0 | 0.00 | 0.00 | 0.05 | 78 | 1002.2 |
| 20260505060505 | 0 | 355 | 7.0 | 7.0 | 0.00 | 0.00 | 0.05 | ||
| 20260505055711 | 56 | 354 | 9.0 | 13.0 | 0.00 | 0.00 | 0.05 | 79 | 1002.3 |
| 20260505055032 | 0 | 355 | 9.0 | 6.0 | 0.00 | 0.00 | 0.05 | ||
| 20260505054241 | 54 | 357 | 6.0 | 16.0 | 0.00 | 0.00 | 0.05 | 84 | 1003.0 |
| 20260505053601 | 54 | 356 | 7.0 | 19.0 | 0.00 | 0.00 | 0.05 | 85 | 1003.3 |
| 20260505052922 | 56 | 356 | 11.0 | 20.0 | 0.00 | 0.00 | 0.03 | 82 | 1003.3 |
| 20260505052242 | 0 | 355 | 14.0 | 10.0 | 0.00 | 0.00 | 0.01 | ||
| 20260505051454 | 0 | 355 | 13.0 | 11.0 | 0.00 | 0.00 | 0.00 | ||
| 20260505050703 | 61 | 356 | 14.0 | 24.0 | 0.00 | 0.00 | 0.00 | 64 | 1002.3 |
| 20260505041539 | 64 | 354 | 13.0 | 23.0 | 0.00 | 0.00 | 0.00 | 56 | 1002.2 |
| 20260505040859 | 0 | 355 | 14.0 | 8.0 | 0.00 | 0.00 | 0.00 | ||
| 20260505040108 | 63 | 355 | 11.0 | 22.0 | 0.00 | 0.00 | 0.00 | 60 | 1001.8 |
| 20260505035429 | 0 | 357 | 9.0 | 12.0 | 0.00 | 0.00 | 0.00 | ||
| 20260505034640 | 65 | 356 | 13.0 | 22.0 | 0.00 | 0.00 | 0.00 | 53 | 1002.5 |
| 20260505034000 | 64 | 354 | 12.0 | 22.0 | 0.00 | 0.00 | 0.00 | 55 | 1001.8 |
| 20260505033213 | 64 | 350 | 10.0 | 18.0 | 0.00 | 0.00 | 0.00 | 55 | 1001.6 |